Weather History for Sturgeon Bay, WI

Change the Weather History Date:

Sunday, November 27, 2011

  Actual Average Record
Temperature  
Mean Temperature 34 °F -  
Max Temperature 37 °F 37 °F 54 °F (1990)
Min Temperature 30 °F 26 °F 6 °F (1930)
Degree Days  
Heating Degree Days 32    
Moisture  
Dew Point 25 °F    
Average Humidity 70    
Maximum Humidity 87    
Minimum Humidity 60    
Precipitation  
Precipitation 0.01 in - - ()
Sea Level Pressure  
Sea Level Pressure 29.99 in    
Wind  
Wind Speed 15 mph (NNW)    
Max Wind Speed 22 mph    
Max Gust Speed 26 mph    
Visibility 10 miles    
Events      
Averages and records for this station are not official NWS values.
T = Trace of Precipitation, MM = Missing Value Source: NWS Daily Summary

Daily Weather History Graph

Daily Weather History Graph

Search for Another Location

Airport:

Trip Planner

Search our weather history database for the weather conditions in past years. The results will help you decide how hot, cold, wet, or windy it might be!

Date:

Astronomy

Nov. 27, 2011 Rise Set
Actual Time 7:02 AM CST 4:12 PM CST
Civil Twilight 6:29 AM CST 4:44 PM CST
Nautical Twilight 5:53 AM CST 5:21 PM CST
Astronomical Twilight 5:18 AM CST 5:56 PM CST
Moon 9:27 AM CST (11/27) 6:49 PM CST (11/27)
Length of Visible Light 10h 15m
Length of Day
9h 09m
Waxing Crescent, 8% of the Moon is Illuminated
Nov 27
Waxing Crescent
Dec 2
First Quarter
Dec 10
Full
Dec 17
Last Quarter
Dec 24
New

Hourly Weather History & Observations

Time (CST) Temp. Windchill Dew Point Humidity Pressure Visibility Wind Dir Wind Speed Gust Speed Precip Events Conditions
12:55 AM - - - N/A% 29.81 in 10.0 mi NW 15.0 mph 23.0 mph N/A   Overcast
1:15 AM - - - N/A% 29.81 in 10.0 mi NNW 11.5 mph - N/A   Overcast
1:35 AM - - - N/A% 29.81 in 10.0 mi NNW 16.1 mph 19.6 mph N/A   Overcast
2:15 AM - - - N/A% 29.82 in 10.0 mi NNW 15.0 mph 21.9 mph N/A   Overcast
2:35 AM - - - N/A% 29.82 in 10.0 mi NNW 16.1 mph 21.9 mph N/A   Overcast
2:55 AM - - - N/A% 29.82 in 10.0 mi North 12.7 mph 19.6 mph N/A   Overcast
3:55 AM - - - N/A% 29.80 in 10.0 mi NNW 13.8 mph - 0.01 in   Overcast
4:15 AM 37.4 °F 29.3 °F 33.8 °F 87% 29.83 in 10.0 mi NNW 12.7 mph 18.4 mph N/A   Overcast
4:35 AM 37.4 °F 28.2 °F 32.0 °F 81% 29.83 in 10.0 mi NNW 16.1 mph 23.0 mph N/A   Overcast
4:55 AM 37.4 °F 28.5 °F 30.2 °F 75% 29.84 in 10.0 mi NNW 15.0 mph - N/A   Overcast
5:15 AM 37.4 °F 27.8 °F 32.0 °F 81% 29.84 in 10.0 mi NW 17.3 mph 23.0 mph N/A   Overcast
5:35 AM 35.6 °F 26.6 °F 30.2 °F 81% 29.86 in 10.0 mi NNW 13.8 mph 21.9 mph N/A   Overcast
5:55 AM - - - N/A% 29.85 in 10.0 mi NNW 21.9 mph 25.3 mph N/A   Overcast
6:15 AM 35.6 °F 25.5 °F 28.4 °F 75% 29.86 in 10.0 mi NNW 17.3 mph 26.5 mph N/A   Overcast
6:35 AM 35.6 °F 26.6 °F 28.4 °F 75% 29.87 in 10.0 mi NNW 13.8 mph 19.6 mph N/A   Overcast
7:15 AM - - - N/A% 29.89 in 10.0 mi North 17.3 mph 23.0 mph N/A   Overcast
7:35 AM 35.6 °F 25.9 °F 28.4 °F 75% 29.91 in 10.0 mi North 16.1 mph - N/A   Overcast
7:55 AM - - - N/A% 29.90 in 10.0 mi NNW 20.7 mph - N/A   Overcast
8:15 AM 35.6 °F 25.5 °F 26.6 °F 70% 29.92 in 10.0 mi NNW 17.3 mph 23.0 mph N/A   Overcast
8:35 AM 35.6 °F 24.8 °F 26.6 °F 70% 29.93 in 10.0 mi NNW 19.6 mph - N/A   Overcast
9:55 AM 35.6 °F 25.9 °F 24.8 °F 65% 29.96 in 10.0 mi NW 16.1 mph 21.9 mph N/A   Mostly Cloudy
10:15 AM 35.6 °F 25.2 °F 24.8 °F 65% 29.97 in 10.0 mi NNW 18.4 mph 23.0 mph N/A   Overcast
10:35 AM 33.8 °F 23.9 °F 24.8 °F 70% 29.97 in 10.0 mi NNW 15.0 mph 25.3 mph N/A   Overcast
10:55 AM 33.8 °F 23.2 °F 24.8 °F 70% 29.97 in 10.0 mi NW 17.3 mph 24.2 mph N/A   Overcast
11:15 AM 33.8 °F 23.9 °F 24.8 °F 70% 29.97 in 10.0 mi NNW 15.0 mph 21.9 mph N/A   Overcast
11:55 AM 33.8 °F 23.5 °F 24.8 °F 70% 29.97 in 10.0 mi NW 16.1 mph 20.7 mph N/A   Overcast
12:15 PM 33.8 °F 23.5 °F 24.8 °F 70% 29.97 in 10.0 mi NNW 16.1 mph 20.7 mph N/A   Overcast
12:35 PM 33.8 °F 24.3 °F 24.8 °F 70% 29.97 in 10.0 mi NW 13.8 mph 21.9 mph N/A   Overcast
12:55 PM 33.8 °F 23.2 °F 24.8 °F 70% 29.98 in 10.0 mi NNW 17.3 mph - N/A   Overcast
1:15 PM 33.8 °F 23.9 °F 24.8 °F 70% 29.98 in 10.0 mi NNW 15.0 mph 21.9 mph N/A   Overcast
1:35 PM 33.8 °F 24.3 °F 24.8 °F 70% 29.99 in 10.0 mi NNW 13.8 mph 19.6 mph N/A   Overcast
1:55 PM 33.8 °F 24.3 °F 24.8 °F 70% 29.99 in 10.0 mi North 13.8 mph 19.6 mph N/A   Overcast
2:15 PM 33.8 °F 24.8 °F 24.8 °F 70% 30.00 in 10.0 mi NNW 12.7 mph 17.3 mph N/A   Overcast
2:35 PM 33.8 °F 24.3 °F 23.0 °F 65% 30.00 in 10.0 mi NNW 13.8 mph - N/A   Overcast
3:35 PM 33.8 °F 24.3 °F 24.8 °F 70% 30.03 in 10.0 mi NNW 13.8 mph - N/A   Overcast
3:55 PM 33.8 °F 23.2 °F 23.0 °F 65% 30.04 in 10.0 mi NNW 17.3 mph 23.0 mph N/A   Overcast
4:15 PM 33.8 °F 24.3 °F 23.0 °F 65% 30.05 in 10.0 mi NNW 13.8 mph - N/A   Overcast
4:35 PM 33.8 °F 23.5 °F 21.2 °F 60% 30.05 in 10.0 mi NNW 16.1 mph 19.6 mph N/A   Overcast
4:55 PM 33.8 °F 25.3 °F 24.8 °F 70% 30.07 in 10.0 mi NW 11.5 mph 18.4 mph N/A   Overcast
5:15 PM 32.0 °F 21.2 °F 23.0 °F 69% 30.07 in 10.0 mi NNW 16.1 mph - N/A   Overcast
5:35 PM 32.0 °F 22.1 °F 23.0 °F 69% 30.07 in 10.0 mi NW 13.8 mph 21.9 mph N/A   Overcast
5:55 PM 32.0 °F 23.6 °F 23.0 °F 69% 30.08 in 10.0 mi NNW 10.4 mph - N/A   Overcast
6:15 PM 32.0 °F 22.1 °F 23.0 °F 69% 30.09 in 10.0 mi NNW 13.8 mph - N/A   Overcast
6:35 PM 32.0 °F 23.0 °F 23.0 °F 69% 30.09 in 10.0 mi NNW 11.5 mph - N/A   Overcast
6:55 PM 32.0 °F 22.1 °F 21.2 °F 64% 30.09 in 10.0 mi North 13.8 mph 17.3 mph N/A   Overcast
7:15 PM 32.0 °F 22.5 °F 21.2 °F 64% 30.10 in 10.0 mi NNW 12.7 mph 17.3 mph N/A   Overcast
7:35 PM 32.0 °F 21.6 °F 23.0 °F 69% 30.10 in 10.0 mi NNW 15.0 mph - N/A   Overcast
7:55 PM 32.0 °F 22.5 °F 23.0 °F 69% 30.11 in 10.0 mi NNW 12.7 mph 16.1 mph N/A   Overcast
8:15 PM 30.2 °F 21.3 °F 23.0 °F 75% 30.12 in 10.0 mi NNW 10.4 mph - N/A   Overcast
8:35 PM 32.0 °F 23.6 °F 21.2 °F 64% 30.13 in 10.0 mi NNW 10.4 mph - N/A   Overcast
9:35 PM 32.0 °F 23.6 °F 21.2 °F 64% 30.14 in 10.0 mi NNW 10.4 mph - N/A   Overcast
9:55 PM 32.0 °F 23.0 °F 21.2 °F 64% 30.14 in 10.0 mi NNW 11.5 mph - N/A   Overcast
10:15 PM 32.0 °F 23.6 °F 21.2 °F 64% 30.14 in 10.0 mi NNW 10.4 mph - N/A   Overcast
10:35 PM 32.0 °F 23.0 °F 21.2 °F 64% 30.14 in 10.0 mi NNW 11.5 mph 17.3 mph N/A   Overcast
10:55 PM 32.0 °F 24.8 °F 21.2 °F 64% 30.14 in 10.0 mi NW 8.1 mph - N/A   Overcast
11:15 PM 30.2 °F 23.4 °F 23.0 °F 75% 30.14 in 10.0 mi NW 6.9 mph - N/A   Overcast
11:35 PM 30.2 °F 25.4 °F 21.2 °F 69% 30.15 in 10.0 mi NW 4.6 mph - N/A   Overcast
11:55 PM 30.2 °F 25.4 °F 23.0 °F 75% 30.15 in 10.0 mi NNW 4.6 mph - N/A   Overcast